RH
43 42 43 37 28 22 19 17 18 25 35 46 60 71 70 63 65 64 55 50 47 43 39 37 38 38 37 38 39 38 41 43 43 42 39 35 31 30 30 32 34 36 39 44 49 54 58 63 65 60 58 62 67 69 70 71 71 71 76 77 76 77 74 72 67 63 60 57 58 55 53 53 44 29 22 22 21 19 17 18 17 14 15 16 17 19 23 28
45 43 44 42 35 26 20 18 17 19 27 39 48 64 76 70 66 68 62 55 51 47 41 39 39 39 38 37 37 37 39 41 42 40 34 30 31 32 31 31 33 34 35 39 46 51 55 62 63 58 57 60 65 72 71 70 71 72 76 76 75 76 73 69 65 62 60 58 57 54 54 56 51 38 27 23 22 22 20 20 18 18 21 20 19 21 22 23
48 45 42 41 40 33 24 19 18 18 23 34 39 51 72 77 72 69 67 61 55 51 45 41 40 41 42 39 36 36 39 41 40 37 29 27 30 31 32 30 32 33 33 36 43 50 56 62 63 57 56 58 62 72 76 70 69 72 74 74 74 74 70 66 63 63 61 59 58 56 55 56 54 47 36 26 24 24 23 21 20 21 24 23 22 22 21 21
51 47 43 40 40 38 30 22 20 18 19 28 34 41 58 72 78 73 70 67 60 55 49 44 42 45 49 47 41 37 40 45 40 31 24 25 29 29 30 30 30 32 33 34 40 47 52 58 60 56 55 57 58 67 73 69 67 70 72 73 73 72 71 66 62 62 62 60 60 59 56 56 56 53 45 33 26 25 22 19 19 18 20 22 23 22 20 20
57 51 44 39 39 41 38 28 23 20 18 22 28 37 45 56 72 75 72 72 66 59 53 47 44 45 49 52 51 42 43 49 39 28 24 24 26 27 28 29 30 30 33 34 37 42 44 51 58 57 56 59 59 61 64 64 65 68 68 69 70 72 70 65 62 62 62 60 60 61 59 58 58 56 51 42 33 26 21 19 17 15 16 18 19 21 20 19
62 58 50 42 38 43 43 34 27 23 19 19 22 31 38 42 58 70 75 78 71 63 57 50 47 47 46 49 54 52 49 44 33 25 24 23 24 27 27 28 29 29 32 32 34 39 41 46 54 58 59 62 61 59 59 59 63 66 66 68 69 70 66 59 58 61 62 61 62 63 63 64 63 60 55 48 40 31 24 21 18 16 15 15 16 18 19 18
62 63 59 49 42 42 43 38 31 26 21 20 20 24 30 35 48 61 70 79 77 69 63 54 48 49 50 52 58 62 56 43 36 28 22 22 23 26 27 27 28 29 30 29 29 35 42 46 51 57 61 62 62 60 59 57 60 64 66 67 67 66 59 51 50 54 60 63 64 65 66 68 68 64 58 53 46 38 30 25 21 18 15 16 17 17 16 16
60 65 67 58 48 45 42 37 33 29 24 22 20 22 26 32 45 53 61 75 81 77 69 58 50 48 54 61 63 69 62 46 42 34 24 23 22 24 27 27 28 29 28 26 27 31 39 47 50 55 59 61 61 60 61 60 57 61 64 65 63 59 53 48 45 47 55 61 63 64 65 68 70 66 61 58 53 47 39 31 25 20 16 17 18 17 17 16
60 62 69 66 54 46 41 37 35 31 27 23 21 21 24 30 41 49 54 63 77 84 78 65 53 46 55 65 68 72 65 51 46 39 30 28 25 25 26 27 28 29 28 25 27 32 34 40 47 52 57 64 66 62 61 61 57 57 61 62 59 55 51 48 45 44 50 58 62 63 64 68 70 66 63 61 57 53 48 39 31 24 18 17 18 18 18 18
62 59 67 73 65 52 42 37 38 34 29 26 22 21 21 25 32 42 51 55 69 85 85 75 59 48 54 67 72 69 62 63 61 49 40 37 32 28 27 28 28 29 29 26 27 32 33 34 42 49 55 63 69 66 61 60 58 55 57 59 55 52 49 46 45 44 47 54 60 62 64 65 65 64 64 63 59 56 54 49 40 31 23 19 19 20 19 19
64 60 63 73 72 61 48 42 40 37 34 30 25 21 19 22 23 31 47 54 63 80 88 84 68 52 51 64 72 63 57 69 73 62 51 45 38 31 29 28 28 29 30 28 27 31 33 34 40 47 52 54 59 64 61 59 58 54 53 55 54 51 48 44 42 43 44 49 54 56 58 59 59 59 63 64 62 59 57 54 49 41 31 22 19 21 21 20
65 63 64 67 69 67 60 52 44 39 39 34 28 24 20 21 20 25 41 51 58 73 83 87 80 63 52 59 65 60 60 68 73 72 62 53 45 35 32 32 29 30 31 30 30 31 33 35 39 45 48 47 50 54 55 57 56 52 52 53 53 51 49 45 42 42 44 47 48 50 54 55 55 56 61 65 64 61 58 56 54 49 40 31 24 21 21 20
66 67 68 67 64 66 68 62 51 44 42 38 32 26 22 22 21 24 34 45 54 64 72 82 86 76 62 58 55 58 68 69 70 77 73 63 54 42 37 38 34 32 34 34 35 35 35 38 40 44 46 45 47 48 48 51 52 51 50 51 52 52 50 46 44 43 43 45 45 47 52 53 54 56 60 64 64 60 58 56 56 55 49 43 35 27 21 19
70 68 70 70 67 65 69 67 56 48 44 40 36 30 24 23 22 23 29 39 46 53 64 77 85 84 76 65 57 61 68 69 69 77 80 74 63 50 41 41 40 38 38 38 39 40 39 41 41 44 47 46 45 45 47 49 50 52 50 49 51 54 52 46 45 46 45 45 42 45 48 45 49 55 58 62 64 60 57 57 57 56 55 51 46 38 28 21
74 69 70 74 74 70 70 67 57 51 46 42 40 34 28 27 24 21 23 30 35 41 60 77 85 88 85 75 67 67 67 69 70 72 81 84 73 58 44 42 45 42 41 40 40 40 41 42 41 43 47 46 44 45 50 50 51 51 49 48 50 53 55 49 46 47 48 47 42 44 45 41 43 50 53 57 60 60 57 57 56 56 57 56 52 47 40 31
77 73 72 75 78 74 71 66 56 51 47 42 43 38 34 33 28 23 22 25 29 38 59 77 89 92 87 79 71 72 71 69 71 69 76 84 81 68 52 46 46 44 43 41 41 41 40 42 42 44 45 47 47 48 50 50 51 50 49 49 47 48 54 52 50 49 49 49 45 44 44 42 41 41 46 51 54 57 56 55 56 55 55 55 55 51 48 43
80 77 72 74 79 77 73 66 55 51 46 43 44 40 40 41 35 29 27 29 29 40 60 75 90 97 91 82 72 71 71 69 72 71 72 79 84 82 70 56 46 44 45 44 44 42 40 42 43 45 46 48 49 49 51 51 50 49 48 48 45 44 48 50 51 51 51 51 48 47 45 42 39 36 39 43 46 50 52 52 53 54 54 53 54 53 51 50
81 81 75 72 76 77 75 67 58 55 47 41 45 45 45 47 44 38 34 36 34 40 62 79 92 101 98 86 73 67 66 69 75 72 72 77 82 87 84 70 53 45 48 48 46 44 43 44 45 48 50 51 49 47 49 47 46 47 47 46 45 43 43 45 49 49 50 50 49 51 49 44 41 38 36 36 39 43 47 49 49 50 52 53 52 53 53 52
78 83 80 74 74 75 72 67 63 61 49 44 51 53 52 52 50 47 42 42 42 42 58 79 90 95 94 85 75 69 65 67 74 74 75 76 79 87 89 82 66 53 50 51 50 46 45 47 51 54 51 49 45 42 45 44 41 43 44 44 44 43 41 41 44 45 47 51 51 52 50 46 43 42 39 36 35 37 40 44 46 46 48 50 51 50 51 51
77 82 83 78 75 73 69 66 67 63 51 49 58 57 59 62 57 56 50 43 41 35 39 58 74 80 84 85 80 76 73 71 72 75 78 77 79 87 90 88 79 67 56 51 51 48 46 50 52 47 40 40 41 41 43 44 42 42 43 43 43 43 42 40 41 42 45 51 54 54 52 48 44 42 39 37 36 33 33 37 41 44 46 47 48 47 47 48
76 79 81 79 76 73 70 67 68 66 53 52 60 59 59 58 51 48 45 39 36 33 33 44 64 75 81 87 83 76 77 80 76 76 79 79 82 89 94 91 86 79 64 54 55 53 51 53 45 34 32 35 41 42 43 44 44 44 43 44 44 43 42 40 41 42 45 50 54 57 56 50 46 42 37 37 37 32 28 29 31 34 39 43 43 42 43 44
76 76 77 77 76 74 73 69 67 67 61 60 66 65 57 49 40 35 37 41 41 40 38 39 55 73 80 88 91 82 78 81 82 79 78 79 83 90 94 95 90 79 69 67 68 65 62 53 37 30 32 36 43 45 45 46 46 47 47 46 47 45 43 41 41 42 46 50 52 57 58 53 47 43 39 37 36 32 26 24 23 23 27 32 35 36 38 40
76 74 75 76 75 74 74 72 68 67 67 68 70 66 54 45 43 39 39 46 47 45 44 40 48 66 78 87 95 91 80 76 79 81 82 83 84 87 91 96 92 85 82 78 72 70 63 43 30 33 35 39 46 47 47 48 48 49 50 51 50 47 46 46 43 43 45 49 52 54 56 54 48 43 39 34 33 32 27 23 22 19 18 21 25 28 30 32
77 77 76 73 74 74 72 72 72 72 68 63 65 66 56 49 50 47 44 50 51 46 45 44 45 56 72 83 90 93 87 79 77 78 84 89 90 89 91 93 92 94 92 78 67 64 54 38 33 37 37 40 45 47 49 49 49 50 51 53 51 47 48 46 45 47 49 50 50 51 55 54 48 43 37 32 33 34 29 24 22 18 14 16 18 19 21 23
77 77 75 73 76 74 71 74 73 73 72 64 62 68 67 62 59 53 51 57 57 50 49 47 44 48 60 75 84 90 93 89 83 80 81 86 90 91 93 94 94 97 92 79 72 64 52 46 41 38 40 45 47 48 48 48 50 51 50 50 50 48 48 47 47 52 56 57 53 52 57 55 48 44 38 33 35 35 27 23 21 16 14 15 14 14 15 17
78 77 74 74 76 73 74 77 72 71 78 74 64 64 69 69 67 60 58 66 63 56 56 50 44 44 46 62 79 86 93 94 89 84 81 82 85 87 93 96 95 95 89 83 82 72 61 56 47 43 47 51 53 50 46 45 51 53 46 45 48 48 49 51 56 61 64 63 57 55 59 55 48 43 37 35 36 34 28 24 22 19 15 13 13 12 12 13
78 77 76 75 74 73 74 72 71 74 77 72 64 61 64 68 71 65 66 78 73 58 55 50 45 41 38 50 68 82 94 94 89 89 83 78 82 87 93 96 95 93 87 90 95 81 65 59 56 53 52 53 54 50 44 45 50 50 45 46 49 49 52 58 66 70 68 67 62 59 59 57 51 44 37 36 36 35 29 25 23 21 16 13 13 12 12 12
75 74 76 76 73 73 73 67 68 74 71 65 62 60 62 71 74 69 74 87 77 57 53 50 43 39 39 48 61 78 89 86 88 91 83 78 82 89 95 95 94 92 88 96 96 75 61 59 57 54 56 56 48 41 42 46 49 49 49 50 50 53 57 62 71 73 70 70 68 64 61 60 54 45 40 36 36 36 29 24 23 20 16 13 13 13 12 12
73 74 74 75 77 76 75 71 66 67 68 69 67 60 65 79 81 74 82 86 70 53 49 48 44 42 45 51 60 74 83 87 93 92 85 86 86 89 93 93 95 95 93 96 90 76 72 65 55 56 63 58 45 44 48 47 50 53 54 53 52 59 62 66 76 76 74 73 66 60 61 61 53 44 42 39 36 36 30 25 25 20 15 12 12 13 13 13
72 75 74 75 82 80 75 76 71 66 69 75 73 65 69 84 89 88 93 84 63 53 51 48 46 45 47 52 61 72 79 86 95 93 91 92 87 85 87 89 95 98 98 97 92 88 83 72 68 71 67 55 49 52 50 47 53 57 58 57 58 66 70 75 79 76 78 74 60 57 61 62 57 44 39 37 36 35 30 28 27 21 16 12 11 12 12 13
72 72 72 73 78 77 74 79 78 69 69 75 74 71 78 88 93 99 96 73 58 60 61 56 50 46 45 47 54 68 77 82 90 95 96 92 89 90 91 94 98 99 100 99 96 94 90 86 86 78 64 57 59 59 55 54 58 59 60 60 64 73 76 83 87 84 84 73 57 60 62 62 59 44 35 33 30 31 30 29 27 21 16 13 11 12 12 13
70 69 70 73 76 75 72 75 75 69 70 73 69 72 87 97 98 98 88 65 59 66 67 63 55 46 43 42 45 59 73 79 85 95 96 91 91 90 87 90 93 96 100 100 97 97 96 93 89 79 71 69 71 72 71 69 64 62 66 66 72 80 80 83 86 83 80 68 56 59 61 60 53 39 35 33 27 28 30 30 28 22 16 13 12 12 11 13
68 70 73 74 75 75 72 73 77 72 69 72 71 72 86 99 98 90 80 69 66 67 64 62 55 45 41 43 44 52 66 75 80 90 94 93 93 87 80 82 86 93 99 99 98 99 98 95 92 91 89 81 77 79 81 79 72 65 65 66 70 78 82 83 80 76 75 67 60 61 62 58 46 35 35 32 26 26 27 30 33 26 17 12 12 13 12 13
70 76 79 76 72 71 70 76 80 73 69 73 76 81 90 97 93 83 78 74 71 68 64 58 56 53 47 41 39 46 62 75 78 84 92 97 98 94 88 87 89 94 98 99 100 98 98 97 94 91 88 82 77 72 66 66 68 62 57 60 64 67 71 73 72 71 68 62 60 64 64 54 42 36 34 28 25 25 22 25 30 26 19 15 14 13 13 13
77 80 83 79 74 73 72 77 79 72 71 76 81 89 94 92 88 82 78 76 75 75 71 62 59 64 60 47 40 41 52 67 73 77 87 96 99 96 91 89 88 93 97 98 99 99 97 96 90 84 81 79 76 70 64 67 74 70 64 66 67 64 62 61 63 63 59 58 61 62 57 46 38 34 29 26 26 25 22 23 25 24 19 16 15 14 14 14
81 83 86 82 77 76 71 72 76 72 71 78 86 91 87 80 79 75 71 72 72 71 74 74 71 72 69 58 52 49 51 63 72 76 82 91 97 95 91 89 86 88 92 93 95 98 99 97 92 90 87 82 79 77 76 77 77 75 76 74 68 64 63 61 63 62 61 63 62 56 51 44 37 32 25 24 24 23 23 22 23 21 16 15 15 13 13 14
82 85 86 84 81 78 72 72 78 78 76 82 86 84 77 76 78 73 70 72 70 67 73 80 78 74 71 66 60 56 56 65 76 81 82 86 92 94 92 91 89 87 89 91 94 96 99 98 95 94 93 87 83 82 82 82 77 77 80 72 66 71 73 69 69 70 70 69 60 51 46 41 37 33 26 23 21 20 20 19 18 18 15 14 13 12 13 13
89 89 86 87 86 83 81 83 84 82 84 89 88 82 78 78 80 79 77 75 74 74 78 82 80 73 70 68 62 56 54 61 75 83 83 83 86 89 90 92 91 88 86 89 94 96 97 99 97 96 96 93 90 91 92 92 87 81 75 70 70 77 78 74 71 71 71 67 57 49 45 41 35 29 24 22 20 19 19 18 17 16 15 14 12 13 13 12
93 93 94 95 94 92 92 93 89 87 91 94 93 89 83 79 80 81 80 78 78 81 81 81 82 77 70 65 60 57 54 56 68 78 82 81 79 81 85 88 90 90 88 89 93 94 95 97 98 96 96 96 96 98 98 97 95 89 81 81 80 76 75 73 67 65 66 61 53 47 46 44 34 25 22 21 20 21 20 18 17 17 16 14 13 13 12 12
89 90 98 99 96 97 97 95 94 96 96 92 90 89 83 81 82 80 79 80 80 81 79 78 81 79 74 67 60 58 55 54 61 70 75 75 72 75 81 84 87 91 91 91 92 94 95 96 98 97 97 98 98 98 94 90 93 90 83 83 82 77 78 77 72 70 70 67 63 54 45 37 31 27 23 20 19 20 18 16 17 18 16 14 14 13 13 13
89 91 98 99 97 97 97 97 97 98 97 91 89 89 85 83 84 82 79 78 76 75 74 75 78 76 73 69 66 63 59 57 60 65 70 72 70 72 74 73 78 87 92 95 95 95 94 95 97 98 99 99 96 92 87 85 87 84 79 78 76 76 79 80 81 78 70 68 66 59 47 34 29 28 24 21 22 21 19 18 19 18 16 14 14 14 14 14
92 95 97 97 99 98 96 96 97 96 94 91 87 88 88 85 86 85 81 80 78 74 72 73 75 74 72 71 69 66 64 63 62 63 67 69 66 63 62 60 66 78 88 92 91 89 90 93 98 99 99 99 97 94 92 90 86 82 82 81 79 81 81 80 82 76 69 66 60 59 55 38 28 29 27 25 25 23 22 21 20 18 16 15 16 16 16 15
93 95 95 95 95 94 92 95 98 96 93 90 86 86 86 83 84 82 79 81 82 77 74 75 74 75 74 72 69 67 65 65 64 61 62 65 62 59 59 58 61 71 84 91 92 93 95 97 98 99 99 98 97 96 94 92 91 90 91 87 84 85 79 74 75 73 72 69 62 66 65 42 28 32 29 26 26 24 23 22 20 20 17 17 17 16 16 16
92 92 93 94 94 92 89 91 95 96 92 88 85 85 82 78 78 78 77 81 82 80 81 80 78 79 79 75 71 66 64 66 66 62 63 66 64 60 58 59 62 70 78 86 91 92 94 96 97 98 100 100 100 99 98 97 97 95 92 87 84 84 80 78 76 74 73 67 62 70 65 42 31 33 30 28 27 24 25 23 21 20 19 19 18 16 16 16
87 89 91 91 93 93 87 82 86 91 89 86 86 85 82 78 77 77 78 82 82 80 83 84 82 82 83 81 78 72 69 69 67 65 66 67 66 61 56 56 61 68 71 76 84 88 92 95 95 95 95 94 92 91 89 88 89 89 88 85 82 81 80 77 74 76 74 64 62 69 58 39 35 34 31 31 29 27 27 25 22 21 20 20 19 17 16 15
81 85 87 87 90 91 86 79 82 89 89 87 87 86 84 83 79 76 78 82 81 77 80 83 80 79 81 83 84 84 82 77 70 67 68 68 67 66 62 58 58 63 68 73 79 85 93 97 94 92 90 85 82 80 79 81 84 87 86 82 80 78 78 77 79 80 72 64 67 67 55 42 38 35 35 35 33 32 31 28 25 24 22 21 20 20 18 17
76 79 78 80 85 89 88 83 84 91 90 84 82 81 80 80 77 74 75 77 76 72 72 74 73 73 75 77 82 87 89 86 80 74 71 71 71 69 69 67 64 64 71 79 80 83 94 97 93 91 88 85 85 84 83 84 85 83 81 80 80 81 82 85 83 74 67 70 72 63 54 49 39 32 34 36 36 36 34 32 30 28 27 25 23 23 22 21
74 74 70 69 77 86 88 84 83 90 90 82 78 76 74 72 69 68 69 68 67 66 64 65 65 63 65 68 72 78 85 87 85 80 76 76 77 75 73 72 69 67 73 82 82 85 94 94 90 90 89 86 87 87 87 87 85 82 81 81 82 85 87 86 80 71 68 74 70 57 54 54 40 30 34 36 37 37 35 33 32 31 30 28 27 26 25 24
73 74 70 68 72 77 81 79 78 84 88 85 80 74 70 69 66 64 64 61 60 60 59 60 59 57 59 62 64 71 79 81 81 78 75 74 78 81 81 79 76 71 74 81 82 85 91 90 89 92 91 90 90 90 89 89 88 87 86 83 83 85 86 84 79 74 74 76 68 58 57 54 38 30 35 37 37 37 35 34 33 31 30 29 29 29 27 27
74 76 73 69 69 70 72 74 73 75 80 81 79 74 70 70 68 62 60 60 59 58 55 54 56 57 59 60 60 63 68 70 74 79 77 74 74 78 83 86 85 82 82 82 82 85 88 87 89 93 94 94 93 92 92 92 90 90 88 85 86 88 89 89 84 78 79 79 68 59 59 52 36 31 37 39 36 37 37 36 34 33 32 31 30 29 28 26
72 74 71 70 72 70 69 72 72 71 70 69 70 69 66 66 65 59 55 54 53 53 52 52 56 56 57 56 53 52 54 58 65 73 77 76 72 71 76 83 88 91 92 90 89 89 90 89 90 96 100 94 90 92 94 92 91 93 93 91 91 90 88 85 79 72 73 73 66 65 65 51 35 34 40 40 38 39 39 37 36 36 35 32 30 29 27 24
67 68 67 68 73 71 67 68 69 67 63 59 61 62 61 60 60 58 55 52 48 50 52 54 57 55 53 50 47 46 49 51 53 59 65 69 70 70 75 80 83 87 92 96 97 95 95 94 92 98 99 88 82 88 92 93 98 98 90 82 80 79 77 76 74 70 68 68 68 68 58 42 36 40 43 41 42 43 41 39 39 37 35 33 31 29 28 25